Showing default

OPS 9346 (IDSCS 24), 3289

Orbit data source: Space-Track

OPS 9346 (IDSCS 24), 3289 is a payload satellite owned by SAMSO (US) in GEO that was launched on Thu, 13 Jun 1968 UTC via a TITAN IIIC launch vehicle from the Air Force Eastern Test Range (AFETR). Payload-class satellites include a variety of spacecraft equipped with specific instruments for various scientific and technological missions. These include communications satellites like Starlink; space stations such as the ISS; scientific satellites like the Hubble; Earth observation satellites from companies like Planet Labs, Umbra, and HawkEye 360; GPS; miniature CubeSats for education and research; and military/defense satellites.

Not visible in the next 10 days
Identifier
3289, 1968-050F
Orbit
GEO
Country
Flag of USUS
Related business
Manufacturer
Philco-Ford
Mission
Non-operational spacecraft
Bus & Motor
IDCSP, Unknown motor
Mass
45 kg wet, 45 kg dry
Launch date (UTC)
1968-06-13 (58 years ago)
Launch vehicle
TITAN IIIC
Launch site
Air Force Eastern Test Range (AFETR)
Object type
Payload
Rocket body
Debris
Shape & HBR
POLY, 1.1 m
Radar Cross Section
Medium (>0.1 m² and <1 m²)

Expand to show TLE details & history
Last TLE update: 2 months ago

TLE from 2 months ago
0 OPS 9346 (IDSCS 24)
1  3289U 68050F   26204.14623148 -.00000115  00000-0  00000+0 0  9991
2  3289   7.1539  52.9631 0046102 141.5678  76.0197  1.07288139 51038
Epoch: 2026-07-23T03:30Z
TLE epoch observation values (Epoch: 2026-07-23T03:30:34.399Z)
Latitude
-4.41942°
Longitude
-82.67925°
Altitude
33,884.247 km
Speed
3.148 km/s
True Right ascension
18h 03m 25s
True Declination
-4° 24' 53"
Sunlit
Object was in daylight at epoch
Visualization orbit readout
Latitude
Unknown
Longitude
Unknown
Altitude
Unknown
Speed
Unknown
Apparent Right ascension
Unknown
Apparent Declination
Unknown
Sunlit
N/A
Visualization observer readout
Local Sidereal Time
03:41:55
Azimuth
Unknown
Elevation
Unknown
Doppler factor
Unknown
Orbital elements
Apogee altitude
34,114.561 km
Perigee altitude
33,742.916 km
Semi-major axis
40,306.875 km
Eccentricity
0.00461
Inclination
7.1539°
RAAN
52.9631°
Arg. of periapsis
141.5678°
True anomaly
76.53305°
Mean anomaly
76.0197°
Eccentric anomaly
76.2763°
Mean motion
0.26821 °/min
Orbital period
1,342.23 mins
BSTAR
0
Loading maneuver chart data...
Computing Atmospheric mass density...
Loading historical data...
Loading historical data...
Loading historical data...
Loading historical data...
Loading historical data...
Loading historical data...
Loading historical data...

Documentation

Showing up to 5 results
|